www.pogodaiklimat.ru

Погода и климат >> Архив погоды >> Мозамбик >> Ангоче


ПОГОДА в Ангоче

  • Прогноз погоды в Ангоче
  • Монитор погоды в Ангоче

АРХИВ ПОГОДЫ в Ангоче

Время (UTC), дата Ветер
(напр.,м/с)
 
Видим.   Явления Облачность Т
(С)
Тd
(С)
f
(%)
Тe
(С)
Тes
(С)
Комфортность P
(гПа)
Po
(гПа)
Тmin
(С)
Tmax
(С)
R
(мм)
R24
(мм)
S
(см)
06 19.05 Ю 2 20 км 8/8 600 м
[Sc]
+20.0 +18.7 92 +24 +25 комфорт 1020.3 1013.0 +19.4
09 19.05 Ю 3 30 км 6/6 600 м
[Cu med, cong]
+28.8 +22.3 68 +38 +43 очень
душно
1012.8 1005.7
12 19.05 ЮВ 3 30 км 6/6 600 м
[Cu med, cong]
+28.0 +21.4 67 +35 +38 очень
душно
1011.3 1004.2
15 19.05 Ю 3 30 км 6/6 600 м
[Cu med, cong]
+26.4 +21.9 76 +34 +34 очень
душно
1012.5 1005.4
18 19.05 ЮВ 6 20 км 3/3 300 м
[Cu hum]
+22.0 +17.6 76 +27 +27 душно 923.2 +28.4
03 20.05 З 1 20 км 3/3 600 м
[Cu med, cong]
+22.8 +20.2 85 +29 +29 очень
душно
1011.9 1004.7
06 20.05 З 1 30 км 3/3 600 м
[Cu med, cong]
+24.0 +21.2 84 +30 +34 очень
душно
1013.6 1006.4 +16.6
09 20.05 Ю 2 30 км 5/5 600 м
[Cu med, cong]
+28.0 +21.5 68 +36 +43 очень
душно
1013.3 1006.2
12 20.05 Ю 2 30 км 6/6 600 м
[Cu med, cong]
+28.4 +21.0 64 +36 +39 очень
душно
1011.1 1004.0
03 21.05 З 1 20 км 3/3 600 м
[Cu med, cong]
+20.8 +19.8 94 +27 +27 душно 1011.2 1003.9
06 21.05 З 1 30 км 3/3 600 м
[Cu med, cong]
+22.6 +20.3 87 +29 +33 очень
душно
1013.3 1006.1 +15.5
12 21.05 Ю 2 30 км 6/6 600 м
[Cu med, cong]
+28.6 +19.3 57 +34 +37 очень
душно
1011.7 1004.6
03 22.05 З 3 20 км 4/4 600 м
[Cu med, cong]
+19.8 +18.7 93 +23 +23 комфорт 1012.5 1005.2
06 22.05 штиль 0 30 км 3/3 600 м
[Cu med, cong]
+22.9 +20.2 85 +30 +34 очень
душно
1013.7 1006.5 +14.9
09 22.05 штиль 0 30 км 4/4 600 м
[Cu med, cong]
+28.3 +19.2 58 +34 +45 очень
душно
1013.8 1006.7
12 22.05 Ю 2 30 км 4/4 600 м
[Cu med, cong Ac trans]
+29.4 +29.4 100 +53 +57 опасность
перегрева
1012.1 1005.0
18 22.05 Ю 2 20 км 8/8 600 м
[Cu med, cong]
+25.3 +20.8 76 +32 +32 очень
душно
1013.0 1005.8 +29.5
06 23.05 З 3 30 км 6/3 600 м
[Cu med, cong Ac trans]
+23.2 +20.2 83 +30 +33 очень
душно
1013.7 1006.5 +16.4
09 23.05 ЮЗ 2 30 км 5/4 600 м
[Cu med, cong Ac trans]
+27.9 +21.3 67 +35 +43 очень
душно
1013.6 1006.5
12 23.05 Ю 3 30 км 6/6 600 м
[Sc diur, vesp]
+27.5 +21.4 69 +35 +38 очень
душно
1011.9 1004.8
15 23.05 Ю 2 30 км 5/4 600 м
[Cu med, cong Ac trans]
+25.5 +20.8 75 +32 +32 очень
душно
1012.4 1005.2
18 23.05 ЮЗ 2 20 км 4/4 600 м
[Cu med, cong]
+23.9 +21.4 86 +30 +30 очень
душно
1013.7 1006.5 +29.4
03 24.05 З 3 20 км 6/6 300 м
[]
+21.5 +20.8 96 +27 +27 душно 1013.6 1006.3
06 24.05 Ю 2 20 км 9/9 600 м
[Cu Sc]
+23.5 +21.5 89 +30 +30 очень
душно
1014.3 1007.1 +17.0 3
09 24.05 ЮЗ 2 30 км 6/6 600 м
[Cu med, cong]
+26.3 +22.0 77 +34 +39 очень
душно
1013.8 1006.7
12 24.05 Ю 2 30 км 8/8 600 м
[Cu med, cong]
+26.1 +23.3 85 +35 +37 очень
душно
1012.1 1005.0 0.7
06 25.05 З 3 30 км 6/4 600 м
[Cu med, cong Ac trans]
+22.4 +20.3 88 +29 +31 очень
душно
1014.3 1007.1 +15.8 2
09 25.05 штиль 0 30 км 8/8 600 м
[Cu med, cong]
+26.9 +21.6 73 +34 +38 очень
душно
1013.8 1006.7
12 25.05 З 3 30 км 6/3 600 м
[Cu med, cong Ac trans]
+27.6 +21.2 68 +35 +38 очень
душно
1012.1 1005.0
15 25.05 ЮЗ 2 30 км 3/3 600 м
[Cu med, cong]
+25.8 +20.7 73 +32 +32 очень
душно
1012.1 1005.0

 

Местоположение метеостанции Ангоче (Мозамбик): широта -16.22 долгота 39.90 высота над уровнем моря 62 м.

В архиве по умолчанию представлена погода в Ангоче за последнюю неделю. Архивные данные за месяц целиком и за предыдущие месяцы, начиная с января 2011 года, Вы можете получить, выбрав интересующий диапазон дат из раскрывающегося списка и нажав кнопку "Ввод!".


*Определитесь, кто Вы:
робот инопланетянин человек

Внимание! Время в таблицах - всемирное. Для получения местного времени необходимо прибавить поправку, которая равна 2 ч.

Смотрите также архив погоды в соседних городах и на ближайших метеорологических станциях:

Погода в Нампула (Мозамбик) (141 км)
Погода в Лумбо (Мозамбик) (156 км)
Погода в Пебане (Мозамбик) (219 км)
Погода на Острове Жуан-ди-Нова (Реюньон) (311 км)
Погода в Монтепуезе (Мозамбик) (356 км)
Погода в Пембе (Мадагаскар) (367 км)
Погода в Келимане (Мозамбик) (370 км)
Погода в Маррупе (Мозамбик) (375 км)
Погода в Куаба (Мозамбик) (394 км)
Погода в Мэнтирано (Мадагаскар) (484 км)

Пояснения к столбцам:

Ветер - указаны скорость ветра в м/с - средняя за 10 мин, порывы в срок и между сроками (в фигурных скобках) и направление, откуда дует ветер: С - северный, СВ - северо-восточный, В - восточный, ЮВ - юго-восточный, Ю - южный, ЮЗ - юго-западный, З - западный, СЗ - северо-западный.
Видимость - горизонтальная дальность видимости в метрах или километрах. При видимости от 1 до 10 км при отсутствии осадков обычно наблюдается дымка, при ухудшении видимости до 1 км и менее - туман. В сухую погоду видимость может ухудшаться дымом, пылью или мглою.
Явления - указаны атмосферные явления, наблюдавшиеся в срок или в последний час перед сроком; фигурными скобками обозначены явления, наблюдавшиеся между сроками (за 1-3 часа до срока); квадратными скобками обозначены град или гололедные отложения с указанием их диаметра в мм.
Облачность - указаны через наклонную черту общая и нижняя облачность в баллах и высота нижней границы облаков в метрах; квадратными скобками обозначены формы облаков: Ci - перистые, Cs - перисто-слоистые, Cc - перисто-кучевые, Ac - высококучевые, As - высокослоистые, Sc - слоисто-кучевые, Ns - слоисто-дождевые, Cu - кучевые, Cb - кучево-дождевые. Подробнее классификацию облаков см. в Атласе облаков (PDF).
T - Температура воздуха - температура, измеренная на высоте 2 м над землей.
Td - Температура точки росы - температура, при понижении до которой содержащийся в воздухе водяной пар достигнет насыщения.
f - Относительная влажность воздуха - влажноcть воздуха, измеренная на высоте 2 м над землей.
Te - Эффективная температура - температура, которую ощущает одетый по сезону человек в тени. Характеристика душности погоды. При расчете учитывается влияние влажности воздуха и скорости ветра на теплоощущения человека.
Tes - Эффективная температура на солнце - температура, которую ощущает человек, с поправкой на солнечный нагрев. Характеристика знойности погоды. Зависит от высоты солнца над горизонтом, облачности и скорости ветра. Ночью, в пасмурную погоду, а также при ветре 12 м/с и более поправка равна нулю.
P - Атмосферное давление - приведенное к уровню моря атмосферное давление.
Po - Атмосферное давление - измеренное на уровне метеостанции атмосферное давление.
Tmin - Минимальная температура - минимум температуры воздуха на высоте 2 м над землей.
Tmax - Максимальная температура - максимум температуры воздуха на высоте 2 м над землей.
R - Количество осадков - Количество выпавших осадков за период времени, мм. При наведении курсора мыши на число - период времени, за который выпало указанное количество осадков.
R24 - Количество осадков - Количество выпавших осадков за 24 часа, мм.
S - Снежный покров - Высота снежного покрова, см. При наведении курсора мыши на число - состояние снежного покрова и степень покрытия местности в баллах.